Todos
Kalmar Airport (Kalmar) KLR Condições meteorológicas
|
Kalmar (KLR / ESMQ)
Céu Limpo
Vento Ligeiro |
|
5 °C |
KLR Previsão da área de terminais
| Date | Time (CEST) | Flight Rules | Wind Dir. | Speed | Type | Height AGL (ft) | Visibility | Remarks | ||||||
|---|---|---|---|---|---|---|---|---|---|---|---|---|---|---|
Histórico recente de METAR KLR
| Date | Time (CEST) | Flight Rules | Wind Dir. | Speed | Type | Height AGL (ft) | Visibility | Temp (°C) | Temp (°F) | Dew Point (°C) | Dew Point (°F) | Rel. Humid. | Pressure | Density Altitude | Remarks |
|---|---|---|---|---|---|---|---|---|---|---|---|---|---|---|---|
| 05-Mai | 05:20 | VFR | 220° | 4 kt | 10000 meters | 5° | 41° | 4° | 39° | 93% | 1009 mb | -1.059 ft | |||
| 05-Mai | 04:50 | VFR | 220° | 3 kt | 10000 meters | 4° | 39° | 3° | 37° | 93% | 1009 mb | -1.179 ft | |||
| 05-Mai | 04:20 | VFR | 220° | 4 kt | 10000 meters | 5° | 41° | 4° | 39° | 93% | 1009 mb | -1.059 ft | |||
| 05-Mai | 03:50 | VFR | 250° | 5 kt | 10000 meters | 6° | 42° | 4° | 39° | 87% | 1009 mb | -939 ft | |||
| 05-Mai | 03:20 | VFR | 250° | 5 kt | 10000 meters | 6° | 42° | 4° | 39° | 87% | 1009 mb | -939 ft | |||
| 05-Mai | 02:50 | VFR | 260° | 4 kt | 10000 meters | 6° | 42° | 3° | 37° | 81% | 1009 mb | -939 ft | |||
| 05-Mai | 02:20 | VFR | 250° | 5 kt | 10000 meters | 7° | 44° | 3° | 37° | 76% | 1009 mb | -819 ft | |||
| 05-Mai | 01:50 | VFR | 270° | 7 kt | 10000 meters | 8° | 46° | 3° | 37° | 71% | 1009 mb | -699 ft | |||
| 05-Mai | 01:20 | VFR | 270° | 8 kt | 10000 meters | 8° | 46° | 3° | 37° | 71% | 1009 mb | -699 ft | |||
| 05-Mai | 00:50 | VFR | 270° | 8 kt | 10000 meters | 9° | 48° | 2° | 35° | 61% | 1009 mb | -579 ft | |||
| 05-Mai | 00:20 | VFR | 270° | 9 kt | 10000 meters | 9° | 48° | 1° | 33° | 57% | 1009 mb | -579 ft | |||
| 04-Mai | 23:50 | VFR | 260° | 9 kt | 10000 meters | 10° | 50° | 2° | 35° | 57% | 1009 mb | -459 ft | |||
| 04-Mai | 23:20 | VFR | 260° | 7 kt | 10000 meters | 11° | 51° | 2° | 35° | 54% | 1009 mb | -339 ft | |||
| 04-Mai | 22:50 | VFR | 270° | 9 kt | 10000 meters | 11° | 51° | 2° | 35° | 54% | 1009 mb | -339 ft | |||
| 04-Mai | 22:20 | VFR | 260° | 9 kt | 10000 meters | 12° | 53° | 2° | 35° | 50% | 1009 mb | -219 ft | |||
| 04-Mai | 21:50 | VFR | 260° | 10 kt | 10000 meters | 12° | 53° | 2° | 35° | 50% | 1009 mb | -219 ft | |||
| 04-Mai | 21:20 | VFR | 250° | 8 kt | 10000 meters | 13° | 55° | 3° | 37° | 51% | 1008 mb | -69 ft | |||
| 04-Mai | 20:50 | VFR | 260° | 10 kt | 10000 meters | 14° | 57° | 3° | 37° | 47% | 1008 mb | 51 ft | |||
| 04-Mai | 20:20 | VFR | 260° | 11 kt | 10000 meters | 15° | 59° | 3° | 37° | 44% | 1008 mb | 171 ft | |||
| 04-Mai | 19:50 | VFR | 260° | 12 kt | 10000 meters | 16° | 60° | 2° | 35° | 39% | 1007 mb | 320 ft | |||
| 04-Mai | 19:20 | VFR | 250° | 12 kt | 10000 meters |
16° | 60° | 1° | 33° | 36% | 1007 mb | 320 ft | |||
| 04-Mai | 18:50 | VFR | 260° | 12 kt | Clouds and visibility are OK. | >= 10 km | 17° | 62° | 0° | 32° | 32% | 1007 mb | 440 ft | ||
| 04-Mai | 18:20 | VFR | 260° | 14 kt | Clouds and visibility are OK. | >= 10 km | 18° | 64° | -1° | 30° | 28% | 1007 mb | 560 ft | ||
| 04-Mai | 17:50 | VFR | 270° | 14 kt | Clouds and visibility are OK. | >= 10 km | 18° | 64° | -1° | 30° | 28% | 1007 mb | 560 ft |
Entrar
| Seu navegador não suporta. atualize seu navegador |
